Time,TemperatureF,DewpointF,PressureIn,WindDirection,WindDirectionDegrees,WindSpeedMPH,WindSpeedGustMPH,Humidity,HourlyPrecipIn,Conditions,Clouds,dailyrainin,SoftwareType,DateUTC
2013-01-18 00:02:00,35.0,32.0,30.45,NNW,344,0.0,0.0,90,0.00,,,0.00,,2013-01-18 06:02:00,
2013-01-18 00:12:00,35.0,32.0,30.45,NNW,344,0.0,0.0,90,0.00,,,0.00,,2013-01-18 06:12:00,
2013-01-18 00:22:00,34.0,31.0,30.45,NNW,344,0.0,0.0,90,0.00,,,0.00,,2013-01-18 06:22:00,
2013-01-18 00:32:00,34.0,31.0,30.46,NNW,344,0.0,0.0,90,0.00,,,0.00,,2013-01-18 06:32:00,
2013-01-18 00:43:00,34.0,31.0,30.46,NNW,344,0.0,0.0,90,0.00,,,0.00,,2013-01-18 06:43:00,
2013-01-18 00:52:00,34.0,31.0,30.46,NNW,344,0.0,0.0,90,0.00,,,0.00,,2013-01-18 06:52:00,
2013-01-18 01:02:00,34.0,31.0,30.47,NNW,344,0.0,0.0,90,0.00,,,0.00,,2013-01-18 07:02:00,
2013-01-18 01:12:00,34.0,31.0,30.47,NNW,344,0.0,0.0,90,0.00,,,0.00,,2013-01-18 07:12:00,
2013-01-18 01:22:00,34.0,31.0,30.47,NNW,344,0.0,0.0,90,0.00,,,0.00,,2013-01-18 07:22:00,
2013-01-18 01:32:00,34.0,31.0,30.47,NNW,344,0.0,0.0,90,0.00,,,0.00,,2013-01-18 07:32:00,
2013-01-18 01:42:00,34.0,31.0,30.47,NNW,344,0.0,0.0,90,0.00,,,0.00,,2013-01-18 07:42:00,
2013-01-18 01:52:00,33.0,30.0,30.47,NNW,344,0.0,0.0,90,0.00,,,0.00,,2013-01-18 07:52:00,
2013-01-18 02:02:00,33.0,30.0,30.48,NNW,344,0.0,0.0,90,0.00,,,0.00,,2013-01-18 08:02:00,
2013-01-18 02:12:00,33.0,30.0,30.48,NNW,344,0.0,0.0,90,0.00,,,0.00,,2013-01-18 08:12:00,
2013-01-18 02:22:00,33.0,30.0,30.48,NNW,344,0.0,0.0,90,0.00,,,0.00,,2013-01-18 08:22:00,
2013-01-18 02:32:00,33.0,30.0,30.48,NNW,344,0.0,0.0,90,0.00,,,0.00,,2013-01-18 08:32:00,
2013-01-18 02:42:00,33.0,30.0,30.48,NNW,344,0.0,0.0,90,0.00,,,0.00,,2013-01-18 08:42:00,
2013-01-18 02:53:00,33.0,30.0,30.48,NNW,344,0.0,0.0,90,0.00,,,0.00,,2013-01-18 08:53:00,
2013-01-18 03:02:00,33.0,30.0,30.48,NNW,344,0.0,0.0,89,0.00,,,0.00,,2013-01-18 09:02:00,
2013-01-18 03:12:00,33.0,30.0,30.48,NNW,344,0.0,0.0,89,0.00,,,0.00,,2013-01-18 09:12:00,
2013-01-18 03:22:00,33.0,30.0,30.48,NNW,344,0.0,0.0,89,0.00,,,0.00,,2013-01-18 09:22:00,
2013-01-18 03:32:00,33.0,30.0,30.48,NNW,344,0.0,0.0,90,0.00,,,0.00,,2013-01-18 09:32:00,
2013-01-18 03:42:00,33.0,30.0,30.48,NNW,344,0.0,0.0,90,0.00,,,0.00,,2013-01-18 09:42:00,
2013-01-18 03:52:00,32.0,29.0,30.48,NNW,344,0.0,0.0,90,0.00,,,0.00,,2013-01-18 09:52:00,
2013-01-18 04:02:00,32.0,29.0,30.48,NNW,344,0.0,0.0,90,0.00,,,0.00,,2013-01-18 10:02:00,
2013-01-18 04:12:00,32.0,29.0,30.48,NNW,344,0.0,0.0,90,0.00,,,0.00,,2013-01-18 10:12:00,
2013-01-18 04:22:00,32.0,29.0,30.48,NNW,344,0.0,0.0,90,0.00,,,0.00,,2013-01-18 10:22:00,
2013-01-18 04:32:00,32.0,29.0,30.48,NNW,344,0.0,0.0,89,0.00,,,0.00,,2013-01-18 10:32:00,
2013-01-18 04:42:00,32.0,29.0,30.48,NNW,344,0.0,0.0,89,0.00,,,0.00,,2013-01-18 10:42:00,
2013-01-18 04:52:00,32.0,29.0,30.48,NNW,344,0.0,0.0,90,0.00,,,0.00,,2013-01-18 10:52:00,
2013-01-18 05:02:00,32.0,29.0,30.48,NNW,344,0.0,0.0,90,0.00,,,0.00,,2013-01-18 11:02:00,
2013-01-18 05:12:00,32.0,29.0,30.48,NNW,344,0.0,0.0,90,0.00,,,0.00,,2013-01-18 11:12:00,
2013-01-18 05:22:00,31.0,28.0,30.48,NNW,344,0.0,0.0,90,0.00,,,0.00,,2013-01-18 11:22:00,
2013-01-18 05:32:00,31.0,28.0,30.48,NNW,344,0.0,0.0,90,0.00,,,0.00,,2013-01-18 11:32:00,
2013-01-18 05:42:00,31.0,28.0,30.48,NNW,344,0.0,0.0,90,0.00,,,0.00,,2013-01-18 11:42:00,
2013-01-18 05:53:00,31.0,28.0,30.48,NNW,344,0.0,0.0,89,0.00,,,0.00,,2013-01-18 11:53:00,
2013-01-18 06:02:00,31.0,28.0,30.48,NNW,344,0.0,0.0,90,0.00,,,0.00,,2013-01-18 12:02:00,
2013-01-18 06:12:00,31.0,28.0,30.48,NNW,344,0.0,0.0,90,0.00,,,0.00,,2013-01-18 12:12:00,
2013-01-18 06:22:00,31.0,28.0,30.49,NNW,344,0.0,0.0,90,0.00,,,0.00,,2013-01-18 12:22:00,
2013-01-18 06:33:00,31.0,28.0,30.49,NNW,344,0.0,0.0,90,0.00,,,0.00,,2013-01-18 12:33:00,
2013-01-18 06:42:00,31.0,28.0,30.49,NNW,344,0.0,0.0,90,0.00,,,0.00,,2013-01-18 12:42:00,
2013-01-18 06:53:00,30.0,27.0,30.50,NNW,344,0.0,0.0,90,0.00,,,0.00,,2013-01-18 12:53:00,
2013-01-18 07:03:00,30.0,27.0,30.50,NNW,344,0.0,0.0,90,0.00,,,0.00,,2013-01-18 13:03:00,
2013-01-18 07:12:00,30.0,27.0,30.50,NNW,344,0.0,0.0,90,0.00,,,0.00,,2013-01-18 13:12:00,
2013-01-18 07:23:00,30.0,27.0,30.50,NNW,344,0.0,0.0,90,0.00,,,0.00,,2013-01-18 13:23:00,
2013-01-18 07:33:00,30.0,27.0,30.50,NNW,344,0.0,0.0,90,0.00,,,0.00,,2013-01-18 13:33:00,
2013-01-18 07:43:00,30.0,27.0,30.50,NNW,344,0.0,0.0,90,0.00,,,0.00,,2013-01-18 13:43:00,
2013-01-18 07:53:00,31.0,28.0,30.50,NNW,344,0.0,0.0,89,0.00,,,0.00,,2013-01-18 13:53:00,
2013-01-18 08:03:00,33.0,30.0,30.51,NNW,344,0.0,0.0,88,0.00,,,0.00,,2013-01-18 14:03:00,
2013-01-18 08:12:00,33.0,30.0,30.51,NNW,344,0.0,0.0,88,0.00,,,0.00,,2013-01-18 14:12:00,
2013-01-18 08:23:00,37.0,34.0,30.51,NNW,344,0.0,1.0,89,0.00,,,0.00,,2013-01-18 14:23:00,
2013-01-18 08:33:00,40.0,37.0,30.52,NNW,344,0.0,2.0,90,0.00,,,0.00,,2013-01-18 14:33:00,
2013-01-18 08:42:00,40.0,37.0,30.52,NNW,344,0.0,2.0,90,0.00,,,0.00,,2013-01-18 14:42:00,
2013-01-18 08:53:00,43.0,40.0,30.52,NNE,15,1.0,4.0,89,0.00,,,0.00,,2013-01-18 14:53:00,
2013-01-18 09:03:00,45.0,42.0,30.52,NE,51,1.0,7.0,89,0.00,,,0.00,,2013-01-18 15:03:00,
2013-01-18 09:12:00,45.0,42.0,30.52,NE,51,1.0,7.0,89,0.00,,,0.00,,2013-01-18 15:12:00,
2013-01-18 09:23:00,46.0,43.0,30.53,NE,45,1.0,6.0,89,0.00,,,0.00,,2013-01-18 15:23:00,
2013-01-18 09:33:00,46.0,43.0,30.53,NE,45,1.0,6.0,89,0.00,,,0.00,,2013-01-18 15:33:00,
2013-01-18 09:43:00,46.0,43.0,30.53,NE,45,1.0,6.0,89,0.00,,,0.00,,2013-01-18 15:43:00,
2013-01-18 09:53:00,46.0,43.0,30.53,NE,45,1.0,6.0,89,0.00,,,0.00,,2013-01-18 15:53:00,
2013-01-18 18:33:00,48.0,39.0,30.38,ESE,109,0.0,0.0,70,0.00,,,0.00,,2013-01-19 00:33:00,
2013-01-18 18:43:00,48.0,39.0,30.38,ESE,109,0.0,0.0,70,0.00,,,0.00,,2013-01-19 00:43:00,
2013-01-18 18:53:00,45.0,37.0,30.39,ESE,109,0.0,0.0,74,0.00,,,0.00,,2013-01-19 00:53:00,
2013-01-18 19:02:00,43.0,37.0,30.39,ESE,109,0.0,0.0,78,0.00,,,0.00,,2013-01-19 01:02:00,
2013-01-18 19:12:00,43.0,37.0,30.39,ESE,109,0.0,0.0,78,0.00,,,0.00,,2013-01-19 01:12:00,
2013-01-18 19:22:00,41.0,36.0,30.39,ESE,109,0.0,0.0,81,0.00,,,0.00,,2013-01-19 01:22:00,
2013-01-18 19:32:00,40.0,35.0,30.39,ESE,109,0.0,0.0,83,0.00,,,0.00,,2013-01-19 01:32:00,
2013-01-18 19:42:00,40.0,35.0,30.39,ESE,109,0.0,0.0,83,0.00,,,0.00,,2013-01-19 01:42:00,
2013-01-18 19:53:00,39.0,35.0,30.39,ESE,109,0.0,0.0,85,0.00,,,0.00,,2013-01-19 01:53:00,
2013-01-18 20:02:00,39.0,36.0,30.39,ESE,109,0.0,3.0,88,0.00,,,0.00,,2013-01-19 02:02:00,
2013-01-18 20:12:00,39.0,36.0,30.39,ESE,109,0.0,3.0,88,0.00,,,0.00,,2013-01-19 02:12:00,
2013-01-18 20:22:00,38.0,34.0,30.40,ESE,109,0.0,0.0,87,0.00,,,0.00,,2013-01-19 02:22:00,
2013-01-18 20:33:00,37.0,34.0,30.40,ESE,109,0.0,0.0,88,0.00,,,0.00,,2013-01-19 02:33:00,
2013-01-18 20:42:00,37.0,34.0,30.40,ESE,109,0.0,0.0,88,0.00,,,0.00,,2013-01-19 02:42:00,
2013-01-18 20:53:00,37.0,34.0,30.40,ESE,109,0.0,0.0,88,0.00,,,0.00,,2013-01-19 02:53:00,
2013-01-18 21:03:00,36.0,33.0,30.40,ESE,109,0.0,0.0,89,0.00,,,0.00,,2013-01-19 03:03:00,
2013-01-18 21:12:00,36.0,33.0,30.40,ESE,109,0.0,0.0,89,0.00,,,0.00,,2013-01-19 03:12:00,
2013-01-18 21:22:00,35.0,32.0,30.40,ESE,109,0.0,0.0,89,0.00,,,0.00,,2013-01-19 03:22:00,
2013-01-18 21:32:00,35.0,32.0,30.40,ESE,109,0.0,0.0,89,0.00,,,0.00,,2013-01-19 03:32:00,
2013-01-18 21:43:00,35.0,32.0,30.40,ESE,109,0.0,0.0,89,0.00,,,0.00,,2013-01-19 03:43:00,
2013-01-18 21:52:00,35.0,32.0,30.39,ESE,109,0.0,0.0,90,0.00,,,0.00,,2013-01-19 03:52:00,
2013-01-18 22:02:00,35.0,32.0,30.39,ESE,109,0.0,0.0,89,0.00,,,0.00,,2013-01-19 04:02:00,
2013-01-18 22:12:00,35.0,32.0,30.39,ESE,109,0.0,0.0,89,0.00,,,0.00,,2013-01-19 04:12:00,
2013-01-18 22:22:00,34.0,31.0,30.39,ESE,109,0.0,0.0,90,0.00,,,0.00,,2013-01-19 04:22:00,
2013-01-18 22:32:00,34.0,31.0,30.39,ESE,109,0.0,0.0,90,0.00,,,0.00,,2013-01-19 04:32:00,
2013-01-18 22:42:00,34.0,31.0,30.39,ESE,109,0.0,0.0,90,0.00,,,0.00,,2013-01-19 04:42:00,
2013-01-18 22:53:00,34.0,31.0,30.39,ESE,109,0.0,0.0,90,0.00,,,0.00,,2013-01-19 04:53:00,
2013-01-18 23:03:00,34.0,31.0,30.38,ESE,109,0.0,0.0,90,0.00,,,0.00,,2013-01-19 05:03:00,
2013-01-18 23:12:00,34.0,31.0,30.38,ESE,109,0.0,0.0,90,0.00,,,0.00,,2013-01-19 05:12:00,
2013-01-18 23:23:00,34.0,31.0,30.38,ESE,109,0.0,0.0,90,0.00,,,0.00,,2013-01-19 05:23:00,
2013-01-18 23:32:00,33.0,30.0,30.38,ESE,109,0.0,0.0,90,0.00,,,0.00,,2013-01-19 05:32:00,
2013-01-18 23:42:00,33.0,30.0,30.38,ESE,109,0.0,0.0,90,0.00,,,0.00,,2013-01-19 05:42:00,
2013-01-18 23:53:00,33.0,30.0,30.38,ESE,109,0.0,0.0,90,0.00,,,0.00,,2013-01-19 05:53:00,